Showing default

CARTOSAT 3, 44804

Orbit data source: Space-Track

CARTOSAT 3, 44804 is a payload satellite owned by ISRO (IN) in SSO that was launched on Wed, 27 Nov 2019 UTC via a PSLV-XL launch vehicle from the Sirharikota (SRI). Payload-class satellites include a variety of spacecraft equipped with specific instruments for various scientific and technological missions. These include communications satellites like Starlink; space stations such as the ISS; scientific satellites like the Hubble; Earth observation satellites from companies like Planet Labs, Umbra, and HawkEye 360; GPS; miniature CubeSats for education and research; and military/defense satellites.

Loading next visibility...
Identifier
44804, 2019-081A
Orbit
SSO
Country
Flag of ININ / IND
Related business
Manufacturer
ISRO
Mission
Operational Civil Imaging
Bus & Motor
IRS-2, AOCS
Mass
1,625 kg wet, ~1,500 kg dry
Launch date (UTC)
2019-11-27 (6 years ago)
Launch vehicle
PSLV-XL
Launch site
Sirharikota (SRI)
Object type
Payload
Rocket body
Debris
Shape & HBR
Hex Cyl + 2 Pan, Unknown HBR
Radar Cross Section
9.780 m², Large (>1 m²)

Expand to show TLE details & history
Last TLE update: 7 hours ago

TLE from 7 hours ago
0 CARTOSAT 3
1 44804U 19081A   25259.29426105  .00004737  00000-0  22738-3 0  9997
2 44804  97.4715 319.9156 0013415  34.7620 325.4489 15.19267841321886
Epoch: 2025-09-16T07:03Z
TLE epoch observation values (Epoch: 2025-09-16T07:03:44.154Z)
Latitude
0.00002°
Longitude
-141.50501°
Altitude
503.533 km
Speed
7.617 km/s
True Right ascension
21h 19m 39s
True Declination
0° 00' 00"
Sunlit
Object was in full shadow at epoch
Visualization orbit readout
Latitude
Unknown
Longitude
Unknown
Altitude
Unknown
Speed
Unknown
Apparent Right ascension
Unknown
Apparent Declination
Unknown
Sunlit
N/A
Visualization observer readout
Local Sidereal Time
06:51:10
Azimuth
Unknown
Elevation
Unknown
Doppler factor
Unknown
Orbital elements
Apogee altitude
514.255 km
Perigee altitude
495.788 km
Semi-major axis
6,883.159 km
Eccentricity
0.00134
Inclination
97.4715°
RAAN
319.9156°
Arg. of periapsis
34.762°
True anomaly
325.3616°
Mean anomaly
325.4489°
Eccentric anomaly
325.40526°
Mean motion
3.80068 °/min
Orbital period
94.72 mins
BSTAR
0.00022738
Loading maneuver chart data...
Computing Atmospheric mass density...
Loading historical data...
Loading historical data...
Loading historical data...
Loading historical data...
Loading historical data...
Loading historical data...
Loading historical data...

Documentation

Showing up to 5 results
|